Location: Riedlingen
(48.1569°N, 9.4757°E)
Time: 02:45:23
(UTC+02:00)

ISS - Pass Details

Date: 17 May 2021
Orbit: 417 x 422 km, 51.6° (Epoch: 15 June)

Event Time Altitude Azimuth Distance (km) Brightness Sun altitude
Rises 22:02:26 0° 235° (SW) 2,355 0.2 -9.4°
Reaches altitude 10° 22:04:32 10° 232° (SW) 1,495 -0.9 -9.7°
Maximum altitude 22:07:51 60° 152° (SSE) 483 -3.8 -10.0°
Drops below altitude 10° 22:11:11 10° 71° (ENE) 1,505 -1.2 -10.4°
Sets 22:13:18 0° 68° (ENE) 2,373 -0.2 -10.7°
